FW5829 Weather Reports


Display with metric or nautical units.
time (UTC)temp
F
wind
direction
speed
MPH
gust
MPH
rain 1hr
in
rain 24hr
in
rain mn
in
humidity
%
barometer
mb
20260507104502 46 210 0.0 1.0 0.00 0.54 0.17 93 1007.1
20260507103058 0 0.0 0.0 0.00 0.54 0.17 1007.2
20260507101554 0 0.0 0.0 0.00 0.54 0.17 1006.5
20260507100057 0 0.0 0.0 0.00 0.54 0.17 1006.5
20260507094547 0 0.0 0.0 0.00 0.54 0.17 1006.3
20260507093040 0 0.0 0.0 0.00 0.54 0.17 1005.9
20260507091540 0 0.0 0.0 0.00 0.54 0.17 1006.3
20260507090031 0 0.0 0.0 0.00 0.54 0.17 1006.2
20260507084527 0 0.0 0.0 0.00 0.54 0.17 1006.3
20260507083023 0 333 1.0 5.0 0.00 0.54 0.17 93 1006.0
20260507081521 48 345 0.0 4.0 0.00 0.54 0.17 94 1006.0
20260507080018 49 181 0.0 3.0 0.00 0.54 0.17 94 1006.0
20260507074517 49 325 0.0 4.0 0.00 0.54 0.17 94 1005.9
20260507073015 49 30 0.0 4.0 0.00 0.54 0.17 94 1005.6
20260507071522 50 321 0.0 3.0 0.00 0.54 0.17 94 1005.2
20260507070012 50 163 0.0 1.0 0.00 0.54 0.17 94 1005.0
20260507064508 50 9 0.0 2.0 0.01 0.54 0.17 94 1004.7
20260507063008 50 116 0.0 4.0 0.01 0.54 0.17 94 1004.9
20260507061506 50 328 1.0 8.0 0.01 0.54 0.17 94 1004.8
20260507060004 51 359 1.0 4.0 0.01 0.53 0.16 94 1004.4
20260507054609 51 303 1.0 5.0 0.02 0.53 0.16 94 1004.7
20260507053001 51 44 0.0 3.0 0.08 0.53 0.16 94 1004.6
20260507051609 51 38 0.0 1.0 0.15 0.53 0.16 94 1004.9
20260507050059 51 359 1.0 3.0 0.15 0.52 0.15 94 1004.4
20260507044559 52 49 0.0 7.0 0.15 0.51 0.14 94 1004.6
20260507043057 53 194 3.0 5.0 0.10 0.46 0.09 95 1004.2
20260507041552 52 210 3.0 9.0 0.02 0.38 0.01 95 1003.9
20260507040048 52 180 3.0 7.0 0.01 0.37 0.00 95 1004.1
20260507034547 52 187 4.0 8.0 0.00 0.36 0.36 95 1004.0
20260507033045 51 188 4.0 8.0 0.00 0.36 0.36 95 1004.2
20260507031544 51 194 6.0 17.0 0.00 0.36 0.36 95 1004.3
20260507030041 51 199 5.0 12.0 0.00 0.36 0.36 95 1004.3
20260507024539 51 188 7.0 18.0 0.00 0.36 0.36 94 1004.5
20260507023042 51 188 6.0 15.0 0.00 0.36 0.36 95 1004.7
20260507021540 50 182 7.0 17.0 0.00 0.36 0.36 94 1004.8
20260507020036 50 215 10.0 18.0 0.01 0.36 0.36 94 1004.9
20260507014533 50 229 10.0 17.0 0.02 0.36 0.36 95 1005.1
20260507013031 50 192 9.0 18.0 0.03 0.36 0.36 94 1005.2
20260507011534 50 176 8.0 20.0 0.03 0.36 0.36 94 1005.5
20260507010038 50 209 6.0 17.0 0.02 0.35 0.35 94 1005.5
20260507004526 50 179 7.0 20.0 0.01 0.34 0.34 94 1005.6
20260507003024 50 186 10.0 20.0 0.00 0.33 0.33 94 1005.8
20260507001523 50 218 12.0 21.0 0.02 0.33 0.33 94 1005.8
20260507000022 50 176 11.0 20.0 0.02 0.33 0.33 94 1005.7
20260506234519 50 173 11.0 19.0 0.04 0.33 0.33 94 1006.0
20260506233016 50 203 11.0 24.0 0.08 0.33 0.33 94 1006.1
20260506231514 50 179 12.0 22.0 0.10 0.31 0.31 94 1006.3
20260506230022 51 193 13.0 23.0 0.12 0.31 0.31 94 1006.2
20260506224511 51 184 12.0 27.0 0.14 0.28 0.28 93 1006.4
20260506223007 51 202 12.0 20.0 0.13 0.24 0.24 93 1006.5
20260506221506 51 172 11.0 20.0 0.13 0.21 0.21 93 1006.8
20260506220006 51 165 11.0 23.0 0.12 0.19 0.19 93 1007.0
20260506214600 51 194 12.0 22.0 0.09 0.15 0.15 93 1006.9
20260506213110 51 180 9.0 19.0 0.06 0.11 0.11 93 1007.3
20260506211559 51 181 10.0 21.0 0.04 0.08 0.08 92 1007.4
20260506210104 52 181 10.0 21.0 0.05 0.07 0.07 92 1007.3
20260506204604 52 227 9.0 17.0 0.05 0.06 0.06 92 1007.3
20260506203151 53 207 9.0 18.0 0.05 0.05 0.05 92 1007.5
20260506201551 53 195 7.0 24.0 0.04 0.04 0.04 92 1007.7
20260506200049 53 198 10.0 20.0 0.02 0.02 0.02 92 1007.7
20260506194548 53 185 9.0 20.0 0.01 0.01 0.01 91 1007.4
20260506193046 53 196 11.0 18.0 0.00 0.00 0.00 91 1007.5
20260506191549 52 212 10.0 21.0 0.00 0.00 0.00 90 1007.4
20260506190044 53 216 10.0 23.0 0.00 0.00 0.00 90 1007.3
20260506184547 52 152 13.0 22.0 0.00 0.00 0.00 90 1007.6
20260506183040 53 203 11.0 22.0 0.00 0.00 0.00 90 1007.8
20260506181539 53 229 11.0 21.0 0.00 0.00 0.00 90 1008.0
20260506180039 52 207 13.0 20.0 0.00 0.00 0.00 90 1008.0
20260506174536 52 176 10.0 17.0 0.00 0.00 0.00 90 1008.2
20260506173031 52 199 11.0 17.0 0.00 0.00 0.00 90 1008.2
20260506171629 52 161 10.0 16.0 0.00 0.00 0.00 90 1008.4
20260506170028 53 188 12.0 19.0 0.00 0.00 0.00 89 1008.7
20260506164528 53 193 11.0 18.0 0.00 0.00 0.00 89 1009.1
20260506163034 53 212 12.0 23.0 0.00 0.00 0.00 89 1009.3
20260506161528 53 174 10.0 15.0 0.00 0.00 0.00 89 1009.5
20260506160030 53 223 11.0 24.0 0.00 0.00 0.00 89 1009.8
20260506154524 54 190 10.0 19.0 0.00 0.00 0.00 89 1010.1
20260506153023 54 210 11.0 17.0 0.00 0.00 0.00 89 1009.9
20260506151525 54 195 13.0 19.0 0.00 0.00 0.00 89 1009.8
20260506150022 53 181 14.0 25.0 0.00 0.00 0.00 90 1009.6
20260506144521 53 182 12.0 20.0 0.00 0.00 0.00 90 1009.5
20260506143021 53 184 10.0 19.0 0.00 0.00 0.00 89 1009.9
20260506141520 53 233 9.0 17.0 0.00 0.00 0.00 90 1010.3
20260506140026 52 167 10.0 16.0 0.00 0.00 0.00 90 1010.3
20260506134520 53 181 10.0 17.0 0.00 0.00 0.00 90 1010.3
20260506133026 53 179 7.0 14.0 0.00 0.00 0.00 90 1010.2
20260506131517 53 188 10.0 15.0 0.00 0.00 0.00 91 1009.9
20260506130018 52 193 10.0 15.0 0.00 0.00 0.00 91 1009.9
20260506124518 51 180 9.0 12.0 0.00 0.00 0.00 91 1010.0
20260506123012 51 180 7.0 15.0 0.00 0.00 0.00 90 1010.2
20260506121510 52 187 7.0 20.0 0.00 0.00 0.00 89 1010.2
20260506120009 53 191 7.0 13.0 0.00 0.00 0.00 90 1010.2
20260506114528 53 181 4.0 12.0 0.00 0.00 0.00 89 1010.3
20260506113007 54 170 7.0 11.0 0.00 0.00 0.00 89 1010.5
20260506111506 54 174 8.0 13.0 0.00 0.00 0.00 89 1010.3
20260506110007 54 173 6.0 12.0 0.00 0.00 0.00 89 1010.3